sat.trackr.live / text

‹ back to catalog

STARLINK-4447

NORAD 53472 · 2022-099H

PAYLOAD ACTIVE UNKNOWN

§ Identity

Operator
Country
US
Launch date
2022-08-12
Launch site
AFWTR
Launch vehicle
Mass (kg)
RCS (m²)

Purposes: comms

External: N2YO · Heavens-Above · Gunter

§ Orbital elements

Epoch: 2026-09-20T04:00:03.000096Z

Period
94.94 min
Inclination
97.2855°
Eccentricity
0.0001709
Mean motion
15.16760902 rev/d
Perigee alt
514.5 km
Apogee alt
516.8 km
Semi-major
6,893.8 km
B*
3.3193e-2
RAAN
17.0403°
Arg perigee
83.7509°
Mean anomaly
173.0841°
Rev number
582

§ Raw data

STARLINK-44471 53472U 22099H   26263.16670139  .00697890  00000+0  33193-1 0  99932 53472  97.2855  17.0403 0001709  83.7509 173.0841 15.16760902  5829

JSON: /api/v1/satellites/53472 · /tle

For live sub-satellite position, see the globe view (requires WebGL).

§ Visibility from observer

Set your observer location to see the next 7 days of passes ≥ 10°. The values pass through the URL so the page stays shareable.

No JS? Fill the form by hand. The geolocation button needs JavaScript.